Вернуться в каталог

COSMOS 2251 DEB

АктивенLEO
NORAD 47069·DEBRIS·🇷🇺 Russia

Запущен Jun 16, 1993 с Plesetsk Cosmodrome

Loading…

Ближайшие Пролёты (ближайшие 24 часа)

TLE

УстаревающийSource: Space-Track

Эпоха: Sep 8, 2026, 09:37 UTC

1 47069U 93036BXZ 26251.40101507  .00013955  00000-0  14362-2 0  9992
2 47069  74.0101 295.6746 0006134 266.9329  93.1151 14.90305571765037

Отслеживайте COSMOS 2251 DEB в реальном времени с AllMySat

Download on the App Store